Location: Artiguedieu
(43.5000°N, 0.5454°E)
Time: 21:09:15
(UTC+00:00)

Vanguard 1 - Pass Details

Date: 28 July 2021
Orbit: 652 x 3831 km, 34.3° (Epoch: 19 September)

Event Time Altitude Azimuth Distance (km) Brightness Sun altitude
Rises 14:04:13 0° 260° (W) 3,798 13.6 54.8°
Reaches altitude 10° 14:06:28 10° 254° (WSW) 3,095 13.4 54.5°
Maximum altitude 14:13:56 49° 182° (S) 2,106 12.9 53.3°
Drops below altitude 10° 14:27:30 10° 114° (ESE) 5,465 13.7 51.2°
Sets 14:32:58 0° 110° (ESE) 6,962 14.1 50.3°
